Multibeam Report for FK141109


Ship Name: Falkor
Chief Scientist: Drazen, Jeffrey
University of Hawaii
Source Organization: UNOLS R2R
Start Date: 2014-11-09
End Date: 2014-12-09


View ISO Metadata

Visit the full NCEI Bathymetry Viewer


Multibeam Bathymetry

Cruise Details

Project: Exploring the Mariana Trench
Instrument: Kongsberg EM302 and EM710

Data Quality

Number of Files: 305
Number of Records: 192779
BATHYMETRY DATA Quantity Percentage
Number of Beams 79069808 100%
Number of Good Beams 73973095 93.55%
Number of Zero Beams 1772 0.0%
Number of Flagged Beams 5094941 6.44%

Navigation Totals

Total Time: 199.6858 hours
Total Track Length: 1654.8182 km
Average Speed: 8.287 km/hr (4.4746 knots)

Cruise Bounds

Northern Extent: 13.461164
Southern Extent: 11.169227
Western Extent: 144.3155
Eastern Extent: 145.07903

Limits

Minimum Sonar Depth 0 Maximum Sonar Depth 9.39
Minimum Altitude 0 Maximum Altitude 9755.7148
Minimum Depth 0 Maximum Depth 9789.1904

File Information

Full Resolution Bathymetry as collected (raw): 301

Files File Size Description
0000_20141109_222413_FK141109_EM302.all.mb58.gz 103.87MB Kongsberg multibeam vendor format
0001_20141109_232413_FK141109_EM302.all.mb58.gz 108.26MB Kongsberg multibeam vendor format
0002_20141110_002411_FK141109_EM302.all.mb58.gz 108.01MB Kongsberg multibeam vendor format
0003_20141110_012416_FK141109_EM302.all.mb58.gz 102.27MB Kongsberg multibeam vendor format
0004_20141110_022413_FK141109_EM302.all.mb58.gz 94.83MB Kongsberg multibeam vendor format
0005_20141110_032417_FK141109_EM302.all.mb58.gz 86.00MB Kongsberg multibeam vendor format
0006_20141110_042410_FK141109_EM302.all.mb58.gz 11.52MB Kongsberg multibeam vendor format
0007_20141110_043418_FK141109_EM302.all.mb58.gz 1.41MB Kongsberg multibeam vendor format
0008_20141110_043644_FK141109_EM302.all.mb58.gz 5.59MB Kongsberg multibeam vendor format
0010_20141110_101521_FK141109_EM302.all.mb58.gz 1.22MB Kongsberg multibeam vendor format
0011_20141110_113929_FK141109_EM302.all.mb58.gz 10.33MB Kongsberg multibeam vendor format
0012_20141110_114626_FK141109_EM302.all.mb58.gz 88.59MB Kongsberg multibeam vendor format
0013_20141110_124623_FK141109_EM302.all.mb58.gz 15.29MB Kongsberg multibeam vendor format
0014_20141110_125641_FK141109_EM302.all.mb58.gz 48.63MB Kongsberg multibeam vendor format
0015_20141110_132927_FK141109_EM302.all.mb58.gz 88.34MB Kongsberg multibeam vendor format
0016_20141110_142937_FK141109_EM302.all.mb58.gz 80.98MB Kongsberg multibeam vendor format
0017_20141110_152512_FK141109_EM302.all.mb58.gz 45.01MB Kongsberg multibeam vendor format
0018_20141110_155559_FK141109_EM302.all.mb58.gz 87.46MB Kongsberg multibeam vendor format
0019_20141110_165556_FK141109_EM302.all.mb58.gz 18.76MB Kongsberg multibeam vendor format
0020_20141110_170848_FK141109_EM302.all.mb58.gz 87.55MB Kongsberg multibeam vendor format
0021_20141110_180845_FK141109_EM302.all.mb58.gz 23.36MB Kongsberg multibeam vendor format
0022_20141111_085443_FK141109_EM302.all.mb58.gz 88.12MB Kongsberg multibeam vendor format
0023_20141111_095443_FK141109_EM302.all.mb58.gz 13.16MB Kongsberg multibeam vendor format
0024_20141111_140011_FK141109_EM302.all.mb58.gz 87.63MB Kongsberg multibeam vendor format
0025_20141111_150013_FK141109_EM302.all.mb58.gz 21.03MB Kongsberg multibeam vendor format
0026_20141111_151429_FK141109_EM302.all.mb58.gz 30.98MB Kongsberg multibeam vendor format
0027_20141111_153523_FK141109_EM302.all.mb58.gz 87.61MB Kongsberg multibeam vendor format
0028_20141111_163526_FK141109_EM302.all.mb58.gz 27.95MB Kongsberg multibeam vendor format
0029_20141111_165438_FK141109_EM302.all.mb58.gz 26.38MB Kongsberg multibeam vendor format
0030_20141111_171244_FK141109_EM302.all.mb58.gz 87.43MB Kongsberg multibeam vendor format
0031_20141111_181246_FK141109_EM302.all.mb58.gz 24.46MB Kongsberg multibeam vendor format
0032_20141111_182926_FK141109_EM302.all.mb58.gz 38.35MB Kongsberg multibeam vendor format
0033_20141112_150850_FK141109_EM302.all.mb58.gz 87.50MB Kongsberg multibeam vendor format
0034_20141112_160850_FK141109_EM302.all.mb58.gz 41.87MB Kongsberg multibeam vendor format
0035_20141112_163732_FK141109_EM302.all.mb58.gz 33.98MB Kongsberg multibeam vendor format
0036_20141112_170048_FK141109_EM302.all.mb58.gz 72.08MB Kongsberg multibeam vendor format
0037_20141112_181816_FK141109_EM302.all.mb58.gz 87.54MB Kongsberg multibeam vendor format
0038_20141112_191813_FK141109_EM302.all.mb58.gz 74.70MB Kongsberg multibeam vendor format
0039_20141112_200923_FK141109_EM302.all.mb58.gz 87.90MB Kongsberg multibeam vendor format
0040_20141112_210924_FK141109_EM302.all.mb58.gz 63.82MB Kongsberg multibeam vendor format
0041_20141113_052218_FK141109_EM302.all.mb58.gz 59.93MB Kongsberg multibeam vendor format
0042_20141113_105721_FK141109_EM302.all.mb58.gz 87.41MB Kongsberg multibeam vendor format
0043_20141113_115718_FK141109_EM302.all.mb58.gz 87.50MB Kongsberg multibeam vendor format
0044_20141113_125721_FK141109_EM302.all.mb58.gz 87.02MB Kongsberg multibeam vendor format
0045_20141113_135720_FK141109_EM302.all.mb58.gz 86.34MB Kongsberg multibeam vendor format
0046_20141113_145717_FK141109_EM302.all.mb58.gz 87.16MB Kongsberg multibeam vendor format
0047_20141113_155718_FK141109_EM302.all.mb58.gz 87.57MB Kongsberg multibeam vendor format
0048_20141113_165724_FK141109_EM302.all.mb58.gz 1.35MB Kongsberg multibeam vendor format
0049_20141113_165819_FK141109_EM302.all.mb58.gz 10.45MB Kongsberg multibeam vendor format
0050_20141113_170527_FK141109_EM302.all.mb58.gz 87.50MB Kongsberg multibeam vendor format
0051_20141113_180534_FK141109_EM302.all.mb58.gz 17.14MB Kongsberg multibeam vendor format
0052_20141113_181721_FK141109_EM302.all.mb58.gz 87.06MB Kongsberg multibeam vendor format
0053_20141113_191716_FK141109_EM302.all.mb58.gz 22.00MB Kongsberg multibeam vendor format
0055_20141114_041010_FK141109_EM302.all.mb58.gz 87.34MB Kongsberg multibeam vendor format
0056_20141114_051002_FK141109_EM302.all.mb58.gz 73.15MB Kongsberg multibeam vendor format
0057_20141114_060003_FK141109_EM302.all.mb58.gz 87.67MB Kongsberg multibeam vendor format
0058_20141114_070011_FK141109_EM302.all.mb58.gz 86.82MB Kongsberg multibeam vendor format
0059_20141114_080010_FK141109_EM302.all.mb58.gz 86.88MB Kongsberg multibeam vendor format
0060_20141114_090013_FK141109_EM302.all.mb58.gz 81.60MB Kongsberg multibeam vendor format
0061_20141114_095634_FK141109_EM302.all.mb58.gz 33.18MB Kongsberg multibeam vendor format
0062_20141114_101927_FK141109_EM302.all.mb58.gz 87.03MB Kongsberg multibeam vendor format
0063_20141114_111934_FK141109_EM302.all.mb58.gz 86.76MB Kongsberg multibeam vendor format
0064_20141114_121929_FK141109_EM302.all.mb58.gz 87.17MB Kongsberg multibeam vendor format
0065_20141114_131932_FK141109_EM302.all.mb58.gz 87.43MB Kongsberg multibeam vendor format
0066_20141114_141931_FK141109_EM302.all.mb58.gz 45.22MB Kongsberg multibeam vendor format
0067_20141114_145024_FK141109_EM302.all.mb58.gz 34.08MB Kongsberg multibeam vendor format
0068_20141114_151340_FK141109_EM302.all.mb58.gz 87.66MB Kongsberg multibeam vendor format
0069_20141114_161347_FK141109_EM302.all.mb58.gz 86.92MB Kongsberg multibeam vendor format
0070_20141114_171347_FK141109_EM302.all.mb58.gz 86.94MB Kongsberg multibeam vendor format
0071_20141114_181351_FK141109_EM302.all.mb58.gz 86.85MB Kongsberg multibeam vendor format
0072_20141114_191351_FK141109_EM302.all.mb58.gz 0.90MB Kongsberg multibeam vendor format
0073_20141114_191427_FK141109_EM302.all.mb58.gz 11.27MB Kongsberg multibeam vendor format
0074_20141115_063418_FK141109_EM302.all.mb58.gz 87.91MB Kongsberg multibeam vendor format
0075_20141115_073418_FK141109_EM302.all.mb58.gz 70.85MB Kongsberg multibeam vendor format
0076_20141115_082240_FK141109_EM302.all.mb58.gz 87.79MB Kongsberg multibeam vendor format
0077_20141115_092248_FK141109_EM302.all.mb58.gz 87.34MB Kongsberg multibeam vendor format
0078_20141115_102245_FK141109_EM302.all.mb58.gz 86.82MB Kongsberg multibeam vendor format
0079_20141115_112243_FK141109_EM302.all.mb58.gz 87.00MB Kongsberg multibeam vendor format
0080_20141115_122245_FK141109_EM302.all.mb58.gz 87.30MB Kongsberg multibeam vendor format
0081_20141115_132247_FK141109_EM302.all.mb58.gz 47.72MB Kongsberg multibeam vendor format
0082_20141115_135529_FK141109_EM302.all.mb58.gz 28.78MB Kongsberg multibeam vendor format
0083_20141115_141513_FK141109_EM302.all.mb58.gz 86.91MB Kongsberg multibeam vendor format
0084_20141115_151506_FK141109_EM302.all.mb58.gz 87.08MB Kongsberg multibeam vendor format
0085_20141115_161511_FK141109_EM302.all.mb58.gz 86.87MB Kongsberg multibeam vendor format
0086_20141115_171509_FK141109_EM302.all.mb58.gz 6.76MB Kongsberg multibeam vendor format
0087_20141115_171948_FK141109_EM302.all.mb58.gz 24.35MB Kongsberg multibeam vendor format
0088_20141115_173635_FK141109_EM302.all.mb58.gz 86.79MB Kongsberg multibeam vendor format
0089_20141115_183632_FK141109_EM302.all.mb58.gz 64.06MB Kongsberg multibeam vendor format
0090_20141115_192047_FK141109_EM302.all.mb58.gz 74.1KB Kongsberg multibeam vendor format
0091_20141116_105758_FK141109_EM302.all.mb58.gz 87.99MB Kongsberg multibeam vendor format
0092_20141116_115803_FK141109_EM302.all.mb58.gz 21.97MB Kongsberg multibeam vendor format
0093_20141116_121303_FK141109_EM302.all.mb58.gz 8.33MB Kongsberg multibeam vendor format
0094_20141116_121844_FK141109_EM302.all.mb58.gz 88.09MB Kongsberg multibeam vendor format
0095_20141116_131843_FK141109_EM302.all.mb58.gz 74.30MB Kongsberg multibeam vendor format
0096_20141116_140850_FK141109_EM302.all.mb58.gz 26.41MB Kongsberg multibeam vendor format
0097_20141116_142635_FK141109_EM302.all.mb58.gz 88.85MB Kongsberg multibeam vendor format
0098_20141116_152637_FK141109_EM302.all.mb58.gz 56.31MB Kongsberg multibeam vendor format
0099_20141116_160510_FK141109_EM302.all.mb58.gz 8.50MB Kongsberg multibeam vendor format
0100_20141116_161057_FK141109_EM302.all.mb58.gz 35.60MB Kongsberg multibeam vendor format
0101_20141117_115710_FK141109_EM302.all.mb58.gz 87.21MB Kongsberg multibeam vendor format
0102_20141117_125710_FK141109_EM302.all.mb58.gz 87.30MB Kongsberg multibeam vendor format
0103_20141117_135711_FK141109_EM302.all.mb58.gz 79.87MB Kongsberg multibeam vendor format
0104_20141117_145156_FK141109_EM302.all.mb58.gz 30.59MB Kongsberg multibeam vendor format
0105_20141117_151253_FK141109_EM302.all.mb58.gz 87.25MB Kongsberg multibeam vendor format
0106_20141117_161245_FK141109_EM302.all.mb58.gz 87.28MB Kongsberg multibeam vendor format
0107_20141117_171243_FK141109_EM302.all.mb58.gz 87.91MB Kongsberg multibeam vendor format
0108_20141117_181247_FK141109_EM302.all.mb58.gz 27.66MB Kongsberg multibeam vendor format
0109_20141117_183139_FK141109_EM302.all.mb58.gz 31.18MB Kongsberg multibeam vendor format
0110_20141117_185257_FK141109_EM302.all.mb58.gz 14.10MB Kongsberg multibeam vendor format
0111_20141119_100948_FK141109_EM302.all.mb58.gz 87.53MB Kongsberg multibeam vendor format
0112_20141119_110949_FK141109_EM302.all.mb58.gz 41.93MB Kongsberg multibeam vendor format
0113_20141119_113843_FK141109_EM302.all.mb58.gz 86.73MB Kongsberg multibeam vendor format
0114_20141119_123841_FK141109_EM302.all.mb58.gz 78.48MB Kongsberg multibeam vendor format
0115_20141119_133246_FK141109_EM302.all.mb58.gz 32.56MB Kongsberg multibeam vendor format
0116_20141119_135512_FK141109_EM302.all.mb58.gz 86.73MB Kongsberg multibeam vendor format
0117_20141119_145509_FK141109_EM302.all.mb58.gz 86.55MB Kongsberg multibeam vendor format
0118_20141119_155503_FK141109_EM302.all.mb58.gz 0.95MB Kongsberg multibeam vendor format
0119_20141119_155542_FK141109_EM302.all.mb58.gz 25.02MB Kongsberg multibeam vendor format
0120_20141119_161300_FK141109_EM302.all.mb58.gz 86.53MB Kongsberg multibeam vendor format
0121_20141119_171254_FK141109_EM302.all.mb58.gz 28.77MB Kongsberg multibeam vendor format
0122_20141119_173248_FK141109_EM302.all.mb58.gz 19.09MB Kongsberg multibeam vendor format
0123_20141119_174559_FK141109_EM302.all.mb58.gz 86.49MB Kongsberg multibeam vendor format
0124_20141119_184553_FK141109_EM302.all.mb58.gz 86.89MB Kongsberg multibeam vendor format
0125_20141119_194600_FK141109_EM302.all.mb58.gz 86.72MB Kongsberg multibeam vendor format
0126_20141119_204558_FK141109_EM302.all.mb58.gz 32.21MB Kongsberg multibeam vendor format
0127_20141120_125244_FK141109_EM302.all.mb58.gz 87.14MB Kongsberg multibeam vendor format
0128_20141120_135241_FK141109_EM302.all.mb58.gz 87.28MB Kongsberg multibeam vendor format
0129_20141120_145241_FK141109_EM302.all.mb58.gz 57.81MB Kongsberg multibeam vendor format
0130_20141120_153218_FK141109_EM302.all.mb58.gz 87.45MB Kongsberg multibeam vendor format
0131_20141120_163218_FK141109_EM302.all.mb58.gz 87.00MB Kongsberg multibeam vendor format
0132_20141120_173211_FK141109_EM302.all.mb58.gz 86.42MB Kongsberg multibeam vendor format
0133_20141120_183218_FK141109_EM302.all.mb58.gz 48.50MB Kongsberg multibeam vendor format
0134_20141121_031055_FK141109_EM302.all.mb58.gz 80.61MB Kongsberg multibeam vendor format
0135_20141121_041041_FK141109_EM302.all.mb58.gz 85.02MB Kongsberg multibeam vendor format
0137_20141121_071805_FK141109_EM302.all.mb58.gz 55.82MB Kongsberg multibeam vendor format
0138_20141121_075632_FK141109_EM302.all.mb58.gz 87.12MB Kongsberg multibeam vendor format
0139_20141121_085636_FK141109_EM302.all.mb58.gz 87.33MB Kongsberg multibeam vendor format
0140_20141121_095635_FK141109_EM302.all.mb58.gz 87.54MB Kongsberg multibeam vendor format
0141_20141121_105639_FK141109_EM302.all.mb58.gz 55.31MB Kongsberg multibeam vendor format
0142_20141121_114103_FK141109_EM302.all.mb58.gz 21.25MB Kongsberg multibeam vendor format
0143_20141121_115543_FK141109_EM302.all.mb58.gz 87.03MB Kongsberg multibeam vendor format
0144_20141121_125545_FK141109_EM302.all.mb58.gz 87.50MB Kongsberg multibeam vendor format
0145_20141121_135547_FK141109_EM302.all.mb58.gz 87.18MB Kongsberg multibeam vendor format
0146_20141121_145544_FK141109_EM302.all.mb58.gz 87.13MB Kongsberg multibeam vendor format
0147_20141121_155540_FK141109_EM302.all.mb58.gz 13.30MB Kongsberg multibeam vendor format
0148_20141121_160455_FK141109_EM302.all.mb58.gz 31.18MB Kongsberg multibeam vendor format
0149_20141121_162620_FK141109_EM302.all.mb58.gz 87.38MB Kongsberg multibeam vendor format
0150_20141121_172618_FK141109_EM302.all.mb58.gz 87.57MB Kongsberg multibeam vendor format
0151_20141121_182628_FK141109_EM302.all.mb58.gz 5.33MB Kongsberg multibeam vendor format
0152_20141121_183007_FK141109_EM302.all.mb58.gz 5.86MB Kongsberg multibeam vendor format
0153_20141121_183409_FK141109_EM302.all.mb58.gz 61.36MB Kongsberg multibeam vendor format
0154_20141121_191618_FK141109_EM302.all.mb58.gz 48.66MB Kongsberg multibeam vendor format
0155_20141122_044610_FK141109_EM302.all.mb58.gz 8.72MB Kongsberg multibeam vendor format
0156_20141122_045208_FK141109_EM302.all.mb58.gz 87.41MB Kongsberg multibeam vendor format
0157_20141122_055214_FK141109_EM302.all.mb58.gz 22.33MB Kongsberg multibeam vendor format
0158_20141122_060746_FK141109_EM302.all.mb58.gz 46.33MB Kongsberg multibeam vendor format
0159_20141122_071255_FK141109_EM302.all.mb58.gz 1.79MB Kongsberg multibeam vendor format
0160_20141122_071411_FK141109_EM302.all.mb58.gz 75.43MB Kongsberg multibeam vendor format
0161_20141122_080612_FK141109_EM302.all.mb58.gz 86.92MB Kongsberg multibeam vendor format
0162_20141122_090613_FK141109_EM302.all.mb58.gz 87.15MB Kongsberg multibeam vendor format
0163_20141122_100624_FK141109_EM302.all.mb58.gz 31.96MB Kongsberg multibeam vendor format
0164_20141122_102831_FK141109_EM302.all.mb58.gz 21.78MB Kongsberg multibeam vendor format
0165_20141122_104336_FK141109_EM302.all.mb58.gz 86.57MB Kongsberg multibeam vendor format
0166_20141122_114330_FK141109_EM302.all.mb58.gz 87.08MB Kongsberg multibeam vendor format
0167_20141122_124335_FK141109_EM302.all.mb58.gz 86.63MB Kongsberg multibeam vendor format
0168_20141122_134328_FK141109_EM302.all.mb58.gz 86.98MB Kongsberg multibeam vendor format
0169_20141122_144329_FK141109_EM302.all.mb58.gz 87.04MB Kongsberg multibeam vendor format
0170_20141122_154330_FK141109_EM302.all.mb58.gz 86.77MB Kongsberg multibeam vendor format
0171_20141122_164330_FK141109_EM302.all.mb58.gz 64.32MB Kongsberg multibeam vendor format
0172_20141122_172818_FK141109_EM302.all.mb58.gz 12.74MB Kongsberg multibeam vendor format
0173_20141122_173708_FK141109_EM302.all.mb58.gz 31.21MB Kongsberg multibeam vendor format
0175_20141123_064054_FK141109_EM302.all.mb58.gz 80.92MB Kongsberg multibeam vendor format
0176_20141123_074312_FK141109_EM302.all.mb58.gz 50.73MB Kongsberg multibeam vendor format
0177_20141123_081831_FK141109_EM302.all.mb58.gz 43.44MB Kongsberg multibeam vendor format
0178_20141123_084950_FK141109_EM302.all.mb58.gz 1.55MB Kongsberg multibeam vendor format
0179_20141123_085640_FK141109_EM302.all.mb58.gz 53.20MB Kongsberg multibeam vendor format
0180_20141123_102121_FK141109_EM302.all.mb58.gz 7.97MB Kongsberg multibeam vendor format
0181_20141123_103903_FK141109_EM302.all.mb58.gz 22.86MB Kongsberg multibeam vendor format
0182_20141123_120619_FK141109_EM302.all.mb58.gz 86.71MB Kongsberg multibeam vendor format
0183_20141123_130620_FK141109_EM302.all.mb58.gz 72.76MB Kongsberg multibeam vendor format
0184_20141123_151914_FK141109_EM302.all.mb58.gz 13.92MB Kongsberg multibeam vendor format
0185_20141123_153112_FK141109_EM302.all.mb58.gz 75.54MB Kongsberg multibeam vendor format
0186_20141123_171138_FK141109_EM302.all.mb58.gz 87.12MB Kongsberg multibeam vendor format
0187_20141123_181143_FK141109_EM302.all.mb58.gz 52.31MB Kongsberg multibeam vendor format
0189_20141124_151231_FK141109_EM302.all.mb58.gz 83.36MB Kongsberg multibeam vendor format
0190_20141124_161013_FK141109_EM302.all.mb58.gz 25.89MB Kongsberg multibeam vendor format
0191_20141124_162810_FK141109_EM302.all.mb58.gz 86.38MB Kongsberg multibeam vendor format
0192_20141124_172815_FK141109_EM302.all.mb58.gz 4.38MB Kongsberg multibeam vendor format
0193_20141124_180029_FK141109_EM302.all.mb58.gz 66.43MB Kongsberg multibeam vendor format
0194_20141124_184628_FK141109_EM302.all.mb58.gz 80.52MB Kongsberg multibeam vendor format
0195_20141125_062242_FK141109_EM302.all.mb58.gz 77.92MB Kongsberg multibeam vendor format
0197_20141125_075033_FK141109_EM302.all.mb58.gz 38.33MB Kongsberg multibeam vendor format
0198_20141125_081655_FK141109_EM302.all.mb58.gz 86.25MB Kongsberg multibeam vendor format
0199_20141125_091646_FK141109_EM302.all.mb58.gz 86.29MB Kongsberg multibeam vendor format
0200_20141125_101649_FK141109_EM302.all.mb58.gz 76.51MB Kongsberg multibeam vendor format
0201_20141125_111023_FK141109_EM302.all.mb58.gz 37.66MB Kongsberg multibeam vendor format
0202_20141125_113645_FK141109_EM302.all.mb58.gz 86.75MB Kongsberg multibeam vendor format
0203_20141125_123647_FK141109_EM302.all.mb58.gz 86.89MB Kongsberg multibeam vendor format
0204_20141125_133643_FK141109_EM302.all.mb58.gz 87.14MB Kongsberg multibeam vendor format
0205_20141125_143642_FK141109_EM302.all.mb58.gz 29.38MB Kongsberg multibeam vendor format
0206_20141125_145653_FK141109_EM302.all.mb58.gz 52.89MB Kongsberg multibeam vendor format
0207_20141125_153317_FK141109_EM302.all.mb58.gz 85.48MB Kongsberg multibeam vendor format
0208_20141125_163325_FK141109_EM302.all.mb58.gz 37.59MB Kongsberg multibeam vendor format
0209_20141125_165943_FK141109_EM302.all.mb58.gz 21.43MB Kongsberg multibeam vendor format
0210_20141125_171435_FK141109_EM302.all.mb58.gz 31.52MB Kongsberg multibeam vendor format
0211_20141125_173625_FK141109_EM302.all.mb58.gz 101.7KB Kongsberg multibeam vendor format
0212_20141125_185327_FK141109_EM302.all.mb58.gz 18.70MB Kongsberg multibeam vendor format
0213_20141125_191936_FK141109_EM302.all.mb58.gz 35.17MB Kongsberg multibeam vendor format
0215_20141127_070934_FK141109_EM302.all.mb58.gz 66.78MB Kongsberg multibeam vendor format
0216_20141128_050336_FK141109_EM302.all.mb58.gz 86.53MB Kongsberg multibeam vendor format
0217_20141128_060327_FK141109_EM302.all.mb58.gz 87.00MB Kongsberg multibeam vendor format
0218_20141128_070327_FK141109_EM302.all.mb58.gz 86.95MB Kongsberg multibeam vendor format
0219_20141128_080330_FK141109_EM302.all.mb58.gz 86.87MB Kongsberg multibeam vendor format
0220_20141128_090330_FK141109_EM302.all.mb58.gz 87.02MB Kongsberg multibeam vendor format
0221_20141128_100329_FK141109_EM302.all.mb58.gz 87.28MB Kongsberg multibeam vendor format
0222_20141128_110321_FK141109_EM302.all.mb58.gz 87.97MB Kongsberg multibeam vendor format
0223_20141128_120327_FK141109_EM302.all.mb58.gz 87.36MB Kongsberg multibeam vendor format
0224_20141128_130327_FK141109_EM302.all.mb58.gz 87.67MB Kongsberg multibeam vendor format
0225_20141128_140331_FK141109_EM302.all.mb58.gz 14.52MB Kongsberg multibeam vendor format
0227_20141128_161642_FK141109_EM302.all.mb58.gz 87.21MB Kongsberg multibeam vendor format
0228_20141128_171643_FK141109_EM302.all.mb58.gz 51.59MB Kongsberg multibeam vendor format
0229_20141128_190742_FK141109_EM302.all.mb58.gz 27.01MB Kongsberg multibeam vendor format
0230_20141129_062550_FK141109_EM302.all.mb58.gz 88.58MB Kongsberg multibeam vendor format
0231_20141129_072544_FK141109_EM302.all.mb58.gz 88.83MB Kongsberg multibeam vendor format
0232_20141129_082545_FK141109_EM302.all.mb58.gz 75.51MB Kongsberg multibeam vendor format
0233_20141129_091632_FK141109_EM302.all.mb58.gz 31.09MB Kongsberg multibeam vendor format
0234_20141129_093726_FK141109_EM302.all.mb58.gz 89.20MB Kongsberg multibeam vendor format
0235_20141129_103727_FK141109_EM302.all.mb58.gz 89.17MB Kongsberg multibeam vendor format
0236_20141129_113727_FK141109_EM302.all.mb58.gz 88.32MB Kongsberg multibeam vendor format
0237_20141129_123721_FK141109_EM302.all.mb58.gz 18.07MB Kongsberg multibeam vendor format
0238_20141129_124942_FK141109_EM302.all.mb58.gz 35.18MB Kongsberg multibeam vendor format
0239_20141129_131327_FK141109_EM302.all.mb58.gz 88.74MB Kongsberg multibeam vendor format
0240_20141129_141317_FK141109_EM302.all.mb58.gz 89.41MB Kongsberg multibeam vendor format
0241_20141129_151328_FK141109_EM302.all.mb58.gz 59.37MB Kongsberg multibeam vendor format
0242_20141129_155321_FK141109_EM302.all.mb58.gz 34.84MB Kongsberg multibeam vendor format
0243_20141129_161650_FK141109_EM302.all.mb58.gz 88.42MB Kongsberg multibeam vendor format
0244_20141129_171654_FK141109_EM302.all.mb58.gz 88.53MB Kongsberg multibeam vendor format
0245_20141129_181656_FK141109_EM302.all.mb58.gz 21.25MB Kongsberg multibeam vendor format
0246_20141129_183123_FK141109_EM302.all.mb58.gz 4.55MB Kongsberg multibeam vendor format
0247_20141129_183428_FK141109_EM302.all.mb58.gz 32.25MB Kongsberg multibeam vendor format
0248_20141129_191243_FK141109_EM302.all.mb58.gz 67.82MB Kongsberg multibeam vendor format
0249_20141129_203520_FK141109_EM302.all.mb58.gz 38.21MB Kongsberg multibeam vendor format
0251_20141129_232118_FK141109_EM302.all.mb58.gz 60.09MB Kongsberg multibeam vendor format
0252_20141130_021650_FK141109_EM302.all.mb58.gz 5.73MB Kongsberg multibeam vendor format
0253_20141130_022609_FK141109_EM302.all.mb58.gz 0.59MB Kongsberg multibeam vendor format
0254_20141130_022633_FK141109_EM302.all.mb58.gz 33.97MB Kongsberg multibeam vendor format
0255_20141130_024930_FK141109_EM302.all.mb58.gz 1.98MB Kongsberg multibeam vendor format
0256_20141130_025316_FK141109_EM302.all.mb58.gz 13.42MB Kongsberg multibeam vendor format
0257_20141130_030315_FK141109_EM302.all.mb58.gz 17.54MB Kongsberg multibeam vendor format
0258_20141130_032715_FK141109_EM302.all.mb58.gz 268.7KB Kongsberg multibeam vendor format
0259_20141130_032746_FK141109_EM302.all.mb58.gz 3.99MB Kongsberg multibeam vendor format
0260_20141130_035930_FK141109_EM302.all.mb58.gz 23.71MB Kongsberg multibeam vendor format
0261_20141130_043551_FK141109_EM302.all.mb58.gz 43.84MB Kongsberg multibeam vendor format
0262_20141130_050531_FK141109_EM302.all.mb58.gz 5.64MB Kongsberg multibeam vendor format
0263_20141130_050921_FK141109_EM302.all.mb58.gz 89.46MB Kongsberg multibeam vendor format
0264_20141130_060925_FK141109_EM302.all.mb58.gz 89.22MB Kongsberg multibeam vendor format
0265_20141130_070924_FK141109_EM302.all.mb58.gz 40.50MB Kongsberg multibeam vendor format
0266_20141130_073640_FK141109_EM302.all.mb58.gz 5.08MB Kongsberg multibeam vendor format
0267_20141130_074004_FK141109_EM302.all.mb58.gz 89.16MB Kongsberg multibeam vendor format
0268_20141130_084006_FK141109_EM302.all.mb58.gz 89.43MB Kongsberg multibeam vendor format
0269_20141130_094004_FK141109_EM302.all.mb58.gz 47.94MB Kongsberg multibeam vendor format
0270_20141130_101209_FK141109_EM302.all.mb58.gz 22.17MB Kongsberg multibeam vendor format
0271_20141130_102700_FK141109_EM302.all.mb58.gz 89.37MB Kongsberg multibeam vendor format
0272_20141130_112701_FK141109_EM302.all.mb58.gz 61.93MB Kongsberg multibeam vendor format
0273_20141130_120841_FK141109_EM302.all.mb58.gz 20.10MB Kongsberg multibeam vendor format
0274_20141130_122219_FK141109_EM302.all.mb58.gz 88.89MB Kongsberg multibeam vendor format
0275_20141130_132211_FK141109_EM302.all.mb58.gz 89.69MB Kongsberg multibeam vendor format
0276_20141130_142214_FK141109_EM302.all.mb58.gz 61.92MB Kongsberg multibeam vendor format
0277_20141130_150342_FK141109_EM302.all.mb58.gz 5.92MB Kongsberg multibeam vendor format
0278_20141130_150740_FK141109_EM302.all.mb58.gz 89.56MB Kongsberg multibeam vendor format
0279_20141130_160743_FK141109_EM302.all.mb58.gz 88.84MB Kongsberg multibeam vendor format
0280_20141130_170740_FK141109_EM302.all.mb58.gz 88.99MB Kongsberg multibeam vendor format
0281_20141130_180741_FK141109_EM302.all.mb58.gz 25.39MB Kongsberg multibeam vendor format
0282_20141201_005148_FK141109_EM302.all.mb58.gz 88.31MB Kongsberg multibeam vendor format
0283_20141201_015146_FK141109_EM302.all.mb58.gz 88.51MB Kongsberg multibeam vendor format
0284_20141201_025155_FK141109_EM302.all.mb58.gz 87.10MB Kongsberg multibeam vendor format
0285_20141201_035146_FK141109_EM302.all.mb58.gz 86.71MB Kongsberg multibeam vendor format
0286_20141201_045149_FK141109_EM302.all.mb58.gz 9.18MB Kongsberg multibeam vendor format
0287_20141201_064642_FK141109_EM302.all.mb58.gz 84.82MB Kongsberg multibeam vendor format
0288_20141201_074640_FK141109_EM302.all.mb58.gz 18.67MB Kongsberg multibeam vendor format
0289_20141201_135548_FK141109_EM302.all.mb58.gz 86.47MB Kongsberg multibeam vendor format
0290_20141201_145542_FK141109_EM302.all.mb58.gz 86.51MB Kongsberg multibeam vendor format
0291_20141201_155537_FK141109_EM302.all.mb58.gz 86.68MB Kongsberg multibeam vendor format
0292_20141201_165544_FK141109_EM302.all.mb58.gz 86.54MB Kongsberg multibeam vendor format
0293_20141201_175538_FK141109_EM302.all.mb58.gz 63.18MB Kongsberg multibeam vendor format
0294_20141201_192745_FK141109_EM302.all.mb58.gz 35.47MB Kongsberg multibeam vendor format
0295_20141205_062222_FK141109_EM302.all.mb58.gz 22.69MB Kongsberg multibeam vendor format
0296_20141205_063920_FK141109_EM302.all.mb58.gz 85.64MB Kongsberg multibeam vendor format
0297_20141205_073905_FK141109_EM302.all.mb58.gz 85.60MB Kongsberg multibeam vendor format
0298_20141205_083904_FK141109_EM302.all.mb58.gz 46.50MB Kongsberg multibeam vendor format
0299_20141206_034259_FK141109_EM302.all.mb58.gz 3.46MB Kongsberg multibeam vendor format
0301_20141207_023033_FK141109_EM302.all.mb58.gz 87.41MB Kongsberg multibeam vendor format
0302_20141207_033023_FK141109_EM302.all.mb58.gz 82.82MB Kongsberg multibeam vendor format
0303_20141207_044153_FK141109_EM302.all.mb58.gz 16.63MB Kongsberg multibeam vendor format
0000_20140615_220923_FK141109_EM710.all.mb58.gz 677.60MB Kongsberg multibeam vendor format
0001_20140616_002515_FK141109_EM710.all.mb58.gz 856.13MB Kongsberg multibeam vendor format
0002_20140616_012515_FK141109_EM710.all.mb58.gz 253.27MB Kongsberg multibeam vendor format
0003_20140616_023641_FK141109_EM710.all.mb58.gz 40.23MB Kongsberg multibeam vendor format
0004_20140616_024327_FK141109_EM710.all.mb58.gz 905.08MB Kongsberg multibeam vendor format
0005_20140616_034328_FK141109_EM710.all.mb58.gz 108.44MB Kongsberg multibeam vendor format
0006_20140616_215604_FK141109_EM710.all.mb58.gz 283.83MB Kongsberg multibeam vendor format

Metadata Files: 3

Files File Size Description
FK141109_Multibeam.xml NGDC created ISO metadata
em302_bag_info.tar.gz 17.7KB Additional cruise information
em710_bag_info.tar.gz 1.2KB Additional cruise information

Water Column Sonar Data

Water Column Sonar Data Available: WCSD Map Viewer